Regional Weather Roundup
Issued by NWS Wakefield, VA

Home | Current Version | Previous Version | Graphics & Text | Print | Product List | Glossary On
Versions: 1 2 3 4 5 6 7 8 9 10 11 12 13 14 15 16 17 18 19 20 21 22 23 24 25 26 27 28 29 30 31 32 33 34 35 36 37 38 39 40 41 42 43 44 45 46 47 48 49 50
000
ASUS41 KAKQ 032014
RWRAKQ

REGIONAL WEATHER ROUNDUP
NATIONAL WEATHER SERVICE WAKEFIELD VA
400 PM EDT THU SEP 03 2015

Note: "fair" indicates few or no clouds below 12,000 feet with no
significant weather and/or obstructions to visibility. * = Denotes
station may not report precipitation (e.g., rain,snow,etc.),
thunder or fog.

VAZ042-051-052>054-056-032100-
NORTHERN VIRGINIA

CITY           SKY/WX    TMP DP  RH WIND       PRES   REMARKS
WASH NATIONAL  MOSUNNY   95  67  39 VRB7      29.85F HX  99
DULLES         MOSUNNY   93  63  36 VRB7      29.86F
FORT BELVOIR   SUNNY     94  65  39 NW6       29.84F HX  96
QUANTICO       MOSUNNY   90  70  51 S6        29.86F HX  95
FREDERICKSBRG* MOSUNNY   92  65  41 W7        29.85F
STAFFORD*      SUNNY     92  63  38 N6        29.90F
WARRENTON      MOSUNNY   94  69  44 W5        29.87F HX  99
CULPEPER*      MOSUNNY   90  67  47 NW6       29.88F
MANASSAS*      SUNNY     93  63  36 NW5       29.86F
LEESBURG*      SUNNY     93  68  43 NW7       29.88F HX  97
WINCHESTER     MOSUNNY   93  63  36 NE7       29.88F
FRONT ROYAL*   FAIR      84  70  61 S7        29.89F
LURAY*         FAIR      82  68  61 CALM      29.92F
$$

VAZ048-049-060>072-079>083-032100-
CENTRAL AND SOUTH CENTRAL VIRGINIA

CITY           SKY/WX    TMP DP  RH WIND       PRES   REMARKS
RICHMOND       MOSUNNY   91  68  46 E7        29.86F HX  95
CHESTERFIELD*  FAIR      88  64  45 S5        29.88F
PETERSBURG*    SUNNY     93  73  51 NW5       29.87F HX 101
HANOVER        MOSUNNY   92  67  43 NE7       29.88F HX  95
TAPPAHANNOCK*  SUNNY     93  58  30 CALM      29.87F
QUINTON*       FAIR      90  71  52 NW7       29.86F HX  96
CHARLOTTSVILLE MOSUNNY   89  66  46 S5        29.89F
GORDONSVILLE*  FAIR      91  66  43 CALM      29.88F
ORANGE*        MOSUNNY   91  64  40 CALM      29.89F
LOUISA*        MOSUNNY   93  66  40 NW9       29.87F HX  96
BUMPASS*       FAIR      84  72  66 CALM      29.87F
FARMVILLE*     MOSUNNY   93  59  31 NE6       29.87F
CREWE*         FAIR     N/A N/A N/A NE6       29.89F
FORT PICKETT*  FAIR      91  64  40 NE5       29.89F
CHASE CITY*    FAIR      90  70  50 CALM      29.89F HX  95
CLARKSVILLE*   FAIR      88  70  55 S3        29.90F
SOUTH HILL*    MOSUNNY   85  73  65 SE3       29.96S
LAWRENCEVILLE* FAIR      88  72  58 CALM      29.88F
EMPORIA*       MOSUNNY   88  68  51 CALM      29.89F
$$

VAZ088>098-032100-
SOUTHEAST VIRGINIA

CITY           SKY/WX    TMP DP  RH WIND       PRES   REMARKS
NORFOLK        SUNNY     88  65  46 NE7       29.86F
VIRGINIA BEACH MOSUNNY   94  66  39 N6        29.85F HX  97
NORFOLK NAVAL  MOSUNNY   89  67  47 NE6       29.88F
WEST POINT*    PTSUNNY   94  65  37 SW3       29.87F HX  96
SALUDA*        FAIR      88  69  53 E5        29.86F
NEWPORT NEWS   MOSUNNY   91  65  41 SE9       29.86F
LANGLEY AFB    SUNNY     89  69  51 NE6       29.85F
FORT EUSTIS    SUNNY     92  67  43 VRB6      29.84F
WILLIAMSBURG*  SUNNY     97  70  41 S5        29.87F HX 103
HR EXEC AP*      N/A     91  68  46 N5        29.87F HX  95
FRANKLIN*      MOSUNNY   89  68  49 CALM      29.86F
WAKEFIELD      SUNNY     92  67  43 W3        29.86F HX  95
$$

VAZ020-022-025-037-045-032100-
WEST CENTRAL AND SOUTHWEST VIRGINIA

CITY           SKY/WX    TMP DP  RH WIND       PRES   REMARKS
STAUNTON*      PTSUNNY   82  61  50 NW7       29.96F
WAYNESBORO*    FAIR      84  64  50 W6        29.95F
HOT SPRINGS VA PTSUNNY   76  64  67 N7        30.09F
LYNCHBURG      MOSUNNY   90  64  42 N7        29.93F
DANVILLE       CLOUDY    88  67  49 S5        29.91F
SOUTH BOSTON*  FAIR      88  66  47 S3        29.90F
MARTINSVILLE   CLOUDY    92  60  33 CALM      29.95F
ROANOKE        MOSUNNY   88  61  40 N13       29.96F
BLACKSBURG     TSTM      74  66  75 NW9G39    30.07R
DUBLIN*        CLOUDY    84  67  57 NW3       30.04S
MARION*        PTSUNNY   84  64  50 NW6       30.08F
HILLSVILLE*    MOSUNNY   81  64  56 NW8       30.05F
RICHLANDS*     CLOUDY    82  25  12 N5        30.07F
WISE*          PTSUNNY   81  59  47 N8        30.09F
ABINGDON*      MOSUNNY   86  60  41 CALM      30.04F
$$

MDZ021>025-VAZ099-100-032100-
SOUTHERN MARYLAND AND THE DELMARVA PENINSULA

CITY           SKY/WX    TMP DP  RH WIND       PRES   REMARKS
PATUXENT RIVER PTSUNNY   85  70  60 CALM      29.85F
BAY BRIDGE APT   N/A     90  64  43 N5        29.85F
LEONARDTOWN    NOT AVBL
DOVER          SUNNY     89  72  57 NE6       29.82F HX  96
GEORGETOWN     MOSUNNY   92  65  40 NE6       29.84F
EASTON         MOSUNNY   91  66  43 NW7       29.89F
CAMBRIDGE      SUNNY     91  66  43 W3        29.85F
SALISBURY      SUNNY     91  67  44 N8        29.84F
OCEAN CITY     SUNNY     84  70  62 VRB3      29.85F
WALLOPS ISLAND MOSUNNY   83  70  64 SW7       29.86F
ACCOMACK*      SUNNY     86  61  42 W7        29.85S
$$

NCZ012>017-030>032-032100-
NORTH CENTRAL AND EASTERN NORTH CAROLINA

CITY           SKY/WX    TMP DP  RH WIND       PRES   REMARKS
ROANOKE RAPIDS MOCLDY    88  70  55 S5        29.88F
RALEIGH        PTSUNNY   89  69  51 W3        29.91F
ELIZABETH CITY MOSUNNY   86  73  65 S8        29.86F
AHOSKIE*       MOSUNNY   86  69  56 CALM      29.88F
EDENTON*       SUNNY     86  67  53 S5        29.88F
CURRITUCK*     SUNNY     88  68  51 CALM      29.87F
KILL DEVIL HLS SUNNY     89  71  54 CALM      29.86F HX  95
MANTEO         SUNNY     85  69  59 W5        29.88S
CAPE HATTERAS  SUNNY     84  67  56 VRB5      29.89F
TARBORO*       FAIR      90  69  48 CALM      29.89F
GOLDSBORO      MOSUNNY   89  69  52 N6        29.88F
WASHINGTON     MOSUNNY   84  70  62 CALM      29.89F
GREENVILLE     PTSUNNY   86  70  58 CALM      29.91F
NEW BERN       SUNNY     87  70  56 CALM      29.89F
WILMINGTON     MOSUNNY   80  71  74 S6        29.89S
$$

VAZ048-032100-
ELSEWHERE

CITY           SKY/WX    TMP DP  RH WIND       PRES   REMARKS
HARRISBURG PA  MOSUNNY   92  64  39 W7        29.85F
BALTIMORE      MOSUNNY   93  65  39 W5        29.84F HX  95
ANNAPOLIS      SUNNY     85  74  69 SE8       29.85F
ANDREWS AFB    MOSUNNY   82  72  69 SW6G18    29.85F
PHILADELPHIA   MOSUNNY   96  60  30 N9G18     29.83F HX  96
HENDERSON NC   PTSUNNY   88  60  39 CALM      29.91F
GREENSBORO     CLOUDY    84  65  52 N3        29.95F
ROCKY MOUNT    MOSUNNY   91  67  44 N5        29.89F
$$

VAZ100-032100-
MARINE

STATION/POSITION TIME  TEMP    WIND        PRES    WAVE   SWELL
                       AIR SEA DIR/SP/G            HT/PER HT/PER
                 (UTC) (F)     (DEG/KT/KT) (MB)    (FT/S) (FT/S)
BRANDYWINE LGT   1900   80 76  230/  6/  6 1011.4F
CAPE MAY NJ      1900   81 80  240/  5/  5 1010.8F
LEWES DE         1900   83 76   40/  2/  2 1011.2F
15NM E FENWICK I 1950   82 82   CALM  /  2 1010.9F   1/13   2/13
OCEAN-CITY-INLET 1900   83 78  150/  4/  6 1010.7F
THOMAS POINT MD  2000   85 81  150/  3/  3   N/A
GOOSES REEF MD   2000   84 83   CALM  /  2 1012.1F
COVE POINT MD    1900   82      70/  3/  3 1012.3F
SOLOMONS ISLAND  1900      83                N/A
BISHOPS HEAD MD  1900   82 86  250/  8/  8 1010.9F
PINEY POINT MD   1905          160/  5/  5   N/A
POTOMAC MD       2000   85 82  130/  2/  4 1009.9F   0
CAMBRIDGE MD     1900   86 81  330/  6/  8 1010.6F
LEWISETTA VA     1900   84 82  100/  5/  6 1011.2F
RAPPAHANNOCK LGT 1900          270/  2/  2 1012.3F
STINGRAY PT      2000   85 83   90/  4/  4 1011.6F   0
YORK RVR RNG VA  1900   81     130/  6/  6 1011.4F
JAMESTOWN VA     2000   87 84  150/  2/  4   N/A
DOMINION TERM VA 1900   84     290/  2/  2 1011.9F
KIPTOPEKE VA     1900      80  310/  7/  8   N/A
CHES BAY BRIDGE  1900   80 79  340/  2/  2 1011.6F
CAPE HENRY VA    1900   81     340/  4/  4   N/A
CHESAPEAKE LGHT  1900   84     300/  3/  4 1012.7F
WILLOUBY STN VA  1900   81      80/  4/  5 1013.0F
CAPE HENRY BUOY  1928      82                N/A     1/13
1ST LANDING BUOY 2000      80              1011.0F   1
CAPE CHARLES BUO 1926      80                N/A     1/13   2/13
OFFSHORE WE BUOY 1911      80                N/A     1/13   2/13
64NM E OF VA BCH 1950   79 80  280/  6/  8 1011.2F   2/ 9   2/ 9
DUCK PIER NC     1900   89 81  100/  4/  5 1011.3F
44100 DUCK FRF   1924      81                N/A     1/13
44056 DUCK FRF   1911      82                N/A     1/13
OREGON INLET NC  1900   83 82  190/  5/  6 1012.1F
HATTERAS NC      1900   82 83  290/  3/  5 1012.4F
DIAMOND SHLS NC  1950   81 86  310/  2/  4 1012.4F   1/ 9   2/ 9
CAPE LOOKOUT NC  2000   82     200/  7/  8 1011.9F
$$


USA.gov is the U.S. government's official web portal to all federal, state and local government web resources and services.